星链-32090 (STARLINK-32090 )

导读 | 豆包AI

STARLINK-32090是美国太空探索技术公司(SpaceX)星链(Starlink)星座中的一颗卫星,于2024年5月8日发射入轨。作为星链网络的组成部分,它主要服务于全球高速互联网接入,为偏远地区、海洋、航空等场景提供宽带通信服务,进一步扩充了星链星座的在轨规模与服务覆盖能力。

基本信息
目录编号:
59691
目录名称:
STARLINK-32090
国际标识:
2024-086K
轨道中心:
EARTH
卫星名称:
星链-32090
卫星全名:
星链-32090 (STARLINK-32090 )
卫星状态:
在轨 (已飞行723 天)
发射日期:
2024-05-08 UTC
国别 :
美国 (US)
星等 :
--
轨道信息
数据来源 国际轨道数据 AOE轨道数据
星历时间 2026-04-30T15:42:26+0800
19小时前
查看轨道信息
2026-04-29T05:00:00+0800
2天前
查看轨道信息
半长轴 6861.184km 6861.213km
偏心率 0.0001284 0.0001101
轨道倾角 42.999° 43.001°
近地点辐角 276.913° 274.823°
升交点赤经 132.182° 140.351°
平近点角 83.158° 43.243°
近地点 482.166km 482.32km
远地点 483.928km 483.832km
周期 94.267分钟 94.267分钟
每日圈数 15.275808 15.275711
详细信息
固有亮度:
5
最大亮度:
1.5
卫星平台:
Starlink v2.0 mini
覆盖范围:
全球
运营商:
太空探索技术公司
运营商所在国:
美国
制造商(研发单位):
太空探索技术公司
制造商所在国:
美国
使用方式:
暂无
卫星简介
星链(Starlink)计划是由太空探索技术公司(SpaceX)提出的一个巨型低轨卫星互联网星座项目,计划在2019年至2024年间在太空搭建由约1.2万颗卫星组成的“星链”网络,其中1584颗将部署在地球上空550千米处的近地轨道,并从2020年开始工作。该卫星仍在工作。
2D轨道图
3D轨道图
轨道高度分析图
轨道倾角分析图
轨道综合分析图
查看轨道综合分析图